Location: Chuathbaluk
(61.5726°N, 159.2454°W)
Time: 02:32:31
(UTC+00:00)

TIGRISAT - Pass Details

Date: 17 January 2021
Orbit: 605 x 688 km, 97.7° (Epoch: 05 March)

Event Time Altitude Azimuth Distance (km) Brightness Sun altitude
Rises 14:40:49 0° 95° (E) 2,879 ? -32.9°
Reaches altitude 10° 14:43:56 10° 70° (ENE) 1,988 ? -32.5°
Maximum altitude 14:46:06 14° 40° (NE) 1,758 ? -32.3°
Drops below altitude 10° 14:48:17 10° 9° (N) 2,011 ? -32.0°
Enters shadow 14:48:29 10° 7° (N) 2,052 ? -32.0°
